Sunshine Coast Airport Observation History
Time Wind Speed Temp Pressure Rel. Hum Rain
02/04:30pm NE 10-12 kts 19.2°c 1021.0 hPa 75% 0.0mm
02/04:00pm NE 10-13 kts 19.7°c 1020.8 hPa 76% 0.0mm
02/03:30pm NE 11-13 kts 20.1°c 1020.6 hPa 73% 0.0mm
02/03:00pm NE 11-13 kts 20.6°c 1020.4 hPa 73% 0.0mm
02/02:30pm NE 11-13 kts 20.7°c 1020.6 hPa 72% 0.0mm
02/02:00pm NE 9-11 kts 20.6°c 1020.8 hPa 72% 0.0mm
02/01:30pm NE 8-10 kts 20.7°c 1021.0 hPa 71% 0.0mm
02/01:00pm ENE 8-9 kts 20.9°c 1021.2 hPa 68% 0.0mm
02/12:30pm ENE 7-9 kts 20.6°c 1021.7 hPa 71% 0.0mm
02/12:00pm E 7-9 kts 20.0°c 1022.2 hPa 74% 0.0mm
02/11:30am ESE 5-7 kts 19.7°c 1022.8 hPa 75% 0.0mm
02/11:00am ESE 6-8 kts 19.6°c 1023.1 hPa 73% 0.0mm
02/10:30am ESE 5-6 kts 19.1°c 1023.4 hPa 78% 0.0mm
02/10:00am W 1-3 kts 18.4°c 1023.6 hPa 76% 0.0mm
02/09:30am CALM 0 kts 16.8°c 1023.7 hPa 89% 0.0mm
02/09:00am CALM 0 kts 15.2°c 1023.7 hPa 96% 0.0mm
02/08:30am W 3-4 kts 13.7°c 1023.5 hPa 97% 0.0mm
02/08:00am W 1-4 kts 12.4°c 1023.3 hPa 97% 0.0mm
02/07:30am W 5-6 kts 10.4°c 1023.1 hPa 97% 0.0mm
02/07:00am W 4-5 kts 9.3°c 1023.0 hPa 96% 0.0mm
02/06:30am W 3-4 kts 9.9°c 1022.3 hPa 97% 0.0mm
02/06:00am WNW 7-8 kts 9.8°c 1021.9 hPa 97% 0.0mm
02/05:30am WNW 5-6 kts 9.7°c 1021.9 hPa 97% 0.0mm
02/05:00am W 5-7 kts 9.7°c 1021.9 hPa 97% 0.0mm
02/04:30am WNW 4-5 kts 9.8°c 1021.4 hPa 97% 0.0mm
02/04:00am W 5 kts 9.8°c 1021.6 hPa 96% 0.0mm
02/03:30am WNW 3-5 kts 10.4°c 1021.6 hPa 97% 0.0mm
02/03:00am W 5-6 kts 9.8°c 1021.7 hPa 96% 0.0mm
02/02:30am WSW 5 kts 10.2°c 1021.6 hPa 96% 0.0mm
02/02:00am W 5 kts 10.6°c 1021.7 hPa 96% 0.0mm
02/01:30am W 4-5 kts 10.5°c 1022.0 hPa 96% 0.0mm
02/01:00am W 5 kts 10.6°c 1022.2 hPa 96% 0.0mm
02/12:30am E 6-7 kts 11.0°c 1022.5 hPa 96% 0.0mm
02/12:00am E 3-4 kts 10.6°c 1022.4 hPa 96% 0.0mm
Time Wind Speed Temp Pressure Rel. Hum Rain
01/11:30pm E 4 kts 10.9°c 1022.6 hPa 96% 0.0mm
01/11:25pm E 4 kts 10.9°c 1022.6 hPa 96% 0.0mm
01/11:00pm E 4-5 kts 10.8°c 1022.5 hPa 95% 0.0mm
01/10:58pm E 4 kts 10.8°c 1022.4 hPa 95% 0.0mm
01/10:30pm E 4-5 kts 11.4°c 1022.6 hPa 95% 0.0mm
01/10:00pm E 4 kts 10.9°c 1022.8 hPa 94% 0.0mm
01/09:30pm E 4-5 kts 12.3°c 1022.9 hPa 95% 0.0mm
01/09:00pm E 4 kts 12.1°c 1022.8 hPa 95% 0.0mm
01/08:30pm E 4-5 kts 12.2°c 1022.8 hPa 94% 0.0mm
01/08:00pm E 3-4 kts 12.7°c 1022.5 hPa 94% 0.0mm
01/07:30pm E 4 kts 12.7°c 1022.3 hPa 93% 0.0mm
01/07:00pm E 2-3 kts 13.4°c 1022.2 hPa 92% 0.0mm
01/06:30pm E 3-4 kts 14.1°c 1021.8 hPa 91% 0.0mm
01/06:00pm E 3 kts 14.7°c 1021.3 hPa 86% 0.0mm
01/05:30pm E 4-5 kts 17.0°c 1020.7 hPa 75% 0.0mm
01/05:00pm ENE 5-6 kts 17.8°c 1020.8 hPa 73% 0.0mm
01/04:30pm ENE 6-7 kts 18.9°c 1020.5 hPa 71% 0.0mm
01/04:00pm ENE 7-9 kts 19.3°c 1020.5 hPa 71% 0.0mm
01/03:30pm E 7-9 kts 19.6°c 1020.6 hPa 70% 0.0mm
01/03:00pm E 6-9 kts 19.6°c 1020.7 hPa 72% 0.0mm
01/02:30pm ESE 7-9 kts 19.6°c 1020.7 hPa 74% 0.0mm
01/02:00pm ESE 8-10 kts 19.4°c 1020.9 hPa 74% 0.0mm
01/01:30pm ESE 7-9 kts 19.4°c 1021.1 hPa 72% 0.0mm
01/01:00pm SE 8-9 kts 19.4°c 1021.4 hPa 74% 0.0mm
01/12:30pm SE 9-11 kts 18.9°c 1021.9 hPa 76% 0.0mm
01/12:00pm SE 9-11 kts 18.9°c 1022.2 hPa 76% 0.0mm
01/11:30am SE 9-11 kts 18.9°c 1022.7 hPa 75% 0.0mm
01/11:00am SE 9-13 kts 18.4°c 1023.2 hPa 75% 0.0mm
01/10:30am SSE 10-13 kts 18.7°c 1023.5 hPa 73% 0.0mm
01/10:00am S 10-13 kts 18.4°c 1023.8 hPa 72% 0.0mm
01/09:30am SSE 10-13 kts 18.2°c 1024.0 hPa 76% 0.0mm
01/09:00am SSW 8-11 kts 17.3°c 1023.9 hPa 77% 0.2mm
01/08:30am SSW 7-9 kts 15.5°c 1023.8 hPa 86% 0.2mm
01/08:00am SW 5-6 kts 14.0°c 1023.6 hPa 96% 0.2mm
01/07:30am WSW 4-5 kts 12.3°c 1023.5 hPa 95% 0.2mm
01/07:00am WSW 6-8 kts 12.3°c 1023.3 hPa 95% 0.2mm
01/06:30am WSW 8-9 kts 12.3°c 1022.9 hPa 95% 0.2mm
01/06:00am SSW 5-7 kts 12.5°c 1022.4 hPa 96% 0.2mm
01/05:30am SW 7-9 kts 12.6°c 1022.3 hPa 97% 0.2mm
01/05:00am SW 5-7 kts 10.8°c 1022.2 hPa 96% 0.0mm
01/04:30am WSW 4 kts 10.0°c 1022.1 hPa 95% 0.0mm
01/04:00am W 5-6 kts 10.8°c 1022.1 hPa 96% 0.0mm
01/03:30am SW 6 kts 12.0°c 1022.0 hPa 96% 0.0mm
01/03:00am SW 6-7 kts 12.4°c 1022.0 hPa 96% 0.0mm
01/02:30am WSW 5-7 kts 10.9°c 1022.2 hPa 95% 0.0mm
01/02:00am W 3-4 kts 11.8°c 1022.1 hPa 96% 0.0mm
01/01:30am SW 5-7 kts 11.4°c 1022.2 hPa 96% 0.0mm
01/01:00am WSW 4-5 kts 11.2°c 1022.5 hPa 95% 0.0mm
01/12:30am WNW 4-5 kts 11.4°c 1022.6 hPa 95% 0.0mm
01/12:00am CALM 0-2 kts 11.7°c 1022.8 hPa 95% 0.0mm
Time Wind Speed Temp Pressure Rel. Hum Rain
30/11:30pm W 4-5 kts 11.7°c 1023.0 hPa 95% 0.0mm
30/11:00pm WSW 4-5 kts 12.0°c 1023.2 hPa 94% 0.0mm
30/10:30pm WSW 3-6 kts 12.9°c 1023.3 hPa 95% 0.0mm
30/10:00pm WSW 4-5 kts 12.5°c 1023.2 hPa 92% 0.0mm
30/09:30pm W 1-3 kts 13.8°c 1023.4 hPa 93% 0.0mm
30/09:00pm W 2-5 kts 14.2°c 1023.3 hPa 93% 0.0mm
30/08:30pm SW 5-6 kts 14.3°c 1023.2 hPa 91% 0.0mm
30/08:00pm SW 5-6 kts 14.7°c 1023.2 hPa 91% 0.0mm
30/07:30pm SW 7-9 kts 15.2°c 1023.1 hPa 90% 0.0mm
30/07:00pm SW 4-5 kts 14.8°c 1022.8 hPa 87% 0.0mm
30/06:30pm SSW 5-6 kts 15.7°c 1022.5 hPa 87% 0.0mm
30/06:00pm SSW 5-6 kts 15.9°c 1022.3 hPa 86% 0.0mm
30/05:30pm SSE 5-6 kts 17.2°c 1022.1 hPa 83% 0.0mm
30/05:00pm SSE 7-9 kts 18.0°c 1022.1 hPa 79% 0.0mm
30/04:30pm SSE 8-11 kts 18.4°c 1021.9 hPa 76% 0.0mm
30/04:00pm SSE 10-13 kts 18.5°c 1021.9 hPa 75% 0.0mm
30/03:30pm SSE 11-14 kts 18.9°c 1021.8 hPa 74% 0.0mm
30/03:00pm SSE 11-14 kts 19.0°c 1021.8 hPa 73% 0.0mm
30/02:30pm SE 11-14 kts 19.2°c 1021.6 hPa 73% 0.0mm
30/02:00pm SSE 13-17 kts 19.2°c 1021.8 hPa 70% 0.0mm
30/01:30pm SSE 12-15 kts 19.9°c 1022.0 hPa 72% 0.0mm
30/01:00pm SSE 11-14 kts 19.5°c 1022.3 hPa 71% 0.0mm
30/12:30pm SSE 12-17 kts 19.8°c 1022.8 hPa 69% 0.0mm
30/12:00pm S 15-17 kts 19.5°c 1023.0 hPa 70% 0.0mm
30/11:30am SSE 13-17 kts 19.5°c 1023.5 hPa 67% 0.0mm
30/11:00am S 10-14 kts 18.8°c 1024.1 hPa 71% 0.0mm
30/10:30am S 11-13 kts 18.3°c 1024.3 hPa 69% 0.0mm
30/10:00am S 13-16 kts 18.2°c 1024.2 hPa 72% 0.0mm
30/09:30am SSW 12-16 kts 17.4°c 1024.4 hPa 74% 0.0mm
30/09:00am S 11-15 kts 17.0°c 1024.3 hPa 75% 0.0mm
30/08:30am SSW 13-16 kts 16.1°c 1024.3 hPa 76% 0.0mm
30/08:00am SSW 13-16 kts 15.5°c 1023.9 hPa 77% 0.0mm
30/07:30am SSW 9-13 kts 15.4°c 1023.7 hPa 80% 0.0mm
30/07:00am SW 8-12 kts 14.3°c 1023.5 hPa 84% 0.0mm
30/06:30am SW 8-10 kts 13.1°c 1023.2 hPa 87% 0.0mm
30/06:00am SSW 8-11 kts 13.4°c 1022.9 hPa 85% 0.0mm
30/05:30am SW 7-9 kts 12.6°c 1022.9 hPa 86% 0.0mm
30/05:00am SW 8-11 kts 13.5°c 1022.7 hPa 81% 0.0mm
30/04:30am SSW 10-13 kts 13.9°c 1022.6 hPa 78% 0.0mm
30/04:00am SSW 9-14 kts 13.8°c 1022.6 hPa 81% 0.0mm
30/03:30am SW 8-10 kts 13.3°c 1022.7 hPa 84% 0.0mm
30/03:00am SSW 9-11 kts 13.9°c 1022.7 hPa 81% 0.0mm
30/02:30am SSW 11-16 kts 13.8°c 1023.0 hPa 80% 0.0mm
30/02:00am SSW 11-15 kts 14.2°c 1023.3 hPa 79% 0.0mm
30/01:30am SSW 9-13 kts 14.0°c 1023.3 hPa 81% 0.0mm
30/01:00am SSW 9-11 kts 14.0°c 1023.6 hPa 83% 0.0mm
30/12:30am SSW 8-10 kts 14.5°c 1023.9 hPa 83% 0.0mm
30/12:00am SSW 11-14 kts 14.7°c 1024.0 hPa 83% 0.0mm